Regional Weather Roundup
Issued by NWS

Home | Current Version | Previous Version | Text Only | Print | Product List | Glossary Off
Versions: 1 2 3 4 5 6 7 8 9 10 11 12 13 14 15 16 17 18 19 20 21 22 23 24 25 26 27 28 29 30 31 32 33 34 35 36 37 38 39 40 41 42 43 44 45 46 47 48 49 50

283
ASUS44 KJAN 272110
RWRMS

MISSISSIPPI HOURLY WEATHER ROUNDUP
NATIONAL WEATHER SERVICE JACKSON MS
300 PM CST FRI FEB 27 2015

NOTE: "FAIR: INDICATES FEW OR NO CLOUDS BELOW 12,000 FEET WITH NO
SIGNIFICANT WEATHER AND/OR OBSTRUCTIONS TO VISIBILITY.

MSZ001>002-007>008-010>013-018>021-025>028-034>036-272200-
NORTHWEST MISSISSIPPI

CITY           SKY/WX    TMP DP  RH WIND       PRES   REMARKS
CLARKSDALE     FAIR      32  23  69 N14       30.50F WCI  22
CLEVELAND      FAIR      34  26  71 NE15      30.48S WCI  24
GREENWOOD        N/A    N/A N/A N/A MISG      30.44F
GREENVILLE     MOSUNNY   34  24  67 NE16G22   30.47R WCI  24
OLIVE BRANCH   PTSUNNY   32  19  59 N12       30.50S WCI  23
OXFORD         FAIR      37  16  41 NE5       30.48S WCI  34
TUNICA         CLEAR     32  21  64 N8        30.51F WCI  25
$$

MSZ003>006-009-014>017-022>024-029>033-037>039-272200-
NORTHEAST MISSISSIPPI

CITY           SKY/WX    TMP DP  RH WIND       PRES   REMARKS
COLUMBUS AFB   SUNNY     41  18  39 NE10      30.43F
CORINTH        FAIR      37  12  35 N7G15     30.47F WCI  32
GOLDN TRIANGLE SUNNY     43  21  42 N7        30.43F
STARKVILLE     FAIR      41  23  48 NE9       30.43F
TUPELO         SUNNY     39  16  39 E8        30.46F WCI  33
$$

MSZ040-058-272200-
CENTRAL MISSISSIPPI

CITY           SKY/WX    TMP DP  RH WIND       PRES   REMARKS
JACKSON INTL   SUNNY     46  25  43 N8        30.37F
JACKSON HAWKNS SUNNY     45  24  43 VRB7      30.37F
MERIDIAN KEY   SUNNY     47  23  38 NE8       30.37F
MERIDIAN NAS   SUNNY     47  22  37 NE10      30.39F
VICKSBURG      SUNNY     41  27  57 N10       30.43S
$$

MSZ059>079-272200-
SOUTH MISSISSIPPI

CITY           SKY/WX    TMP DP  RH WIND       PRES   REMARKS
BROOKHAVEN     FAIR      46  30  53 NE7       30.35F
HATTIESBURG    SUNNY     49  30  48 N9        30.35F
MCCOMB         SUNNY     48  28  46 NE9       30.33F
NATCHEZ        SUNNY     46  28  49 N14       30.37S
PINE BELT      SUNNY     48  28  46 NE13      30.35F
$$

MSZ080>082-272200-
COASTAL MISSISSIPPI

CITY           SKY/WX    TMP DP  RH WIND       PRES   REMARKS
BAY ST LOUIS   SUNNY     54  27  35 N9        30.30F
BILOXI         SUNNY     56  30  37 NE9       30.28F
PASCAGOULA     SUNNY     57  30  35 NE13G18   30.28F
GULFPORT       SUNNY     55  30  38 N8        30.29F
$$



USA.gov is the U.S. government's official web portal to all federal, state and local government web resources and services.